Weather reports worldwide

Advertisment
Tarbes/Ossun, France (7621): temperature & dewpoint: 16.08.2019 20:00:00 - 22.08.2019 20:00:00 (CEST)Tarbes/Ossun, France (7621): temperature 5cm: 16.08.2019 20:00:00 - 22.08.2019 20:00:00 (CEST)Tarbes/Ossun, France (7621): temperature -20cm & temperature -100cm: 16.08.2019 20:00:00 - 22.08.2019 20:00:00 (CEST)Tarbes/Ossun, France (7621): wind speed & gusts: 16.08.2019 20:00:00 - 22.08.2019 20:00:00 (CEST)Tarbes/Ossun, France (7621): wind direction: 16.08.2019 20:00:00 - 22.08.2019 20:00:00 (CEST)Tarbes/Ossun, France (7621): reduced air pressure: 16.08.2019 20:00:00 - 22.08.2019 20:00:00 (CEST)Tarbes/Ossun, France (7621): visibility: 16.08.2019 20:00:00 - 22.08.2019 20:00:00 (CEST)Tarbes/Ossun, France (7621): sunshine duration: 16.08.2019 20:00:00 - 22.08.2019 20:00:00 (CEST)Tarbes/Ossun, France (7621): precipitation: 16.08.2019 20:00:00 - 22.08.2019 20:00:00 (CEST)
Date & Time tt [°C] td [°C] tt 5cm [°C] tt -20cm [°C] tt -100cm [°C] ff [km/h] ff [kn] fx [km/h] fx [kn] dd ppp [hPa] vv [km] sd [min] rr [mm]
22.08.2019 20:00:00 22,7 12,9 20,5 20,5 19,1 8 4 14 7 N 1020,9 46 60 0,0
22.08.2019 19:00:00 24,7 13,6 24,2 20,3 19,1 8 4 14 7 WNW 1020,8 43 60 0,0
22.08.2019 18:00:00 25,1 12,3 26,8 20,1 19,1 6 3 16 9 NNW 1021,2 48 60 0,0
22.08.2019 17:00:00 25,4 12,3 29,3 20,0 19,1 8 4 27 14 W 1021,4 40 60 0,0
22.08.2019 16:00:00 25,0 12,2 32,6 19,8 19,1 7 4 24 13 W 1021,8 19 60 0,0
22.08.2019 15:00:00 24,0 12,0 32,5 19,7 19,1 13 7 35 19 NW 1022,2 59 60 0,0
22.08.2019 14:00:00 23,9 11,9 31,9 19,6 19,1 7 4 21 12 W 1022,1 15 60 0,0
22.08.2019 13:00:00 23,5 11,5 28,0 19,6 19,1 8 5 23 12 WNW 1022,5 49 60 0,0
22.08.2019 12:00:00 22,7 10,2 23,5 19,6 19,1 6 3 37 20 WNW 1022,9 36 60 0,0
22.08.2019 11:00:00 21,7 13,1 20,2 19,6 19,1 10 5 26 14 W 1023,1 25 60 0,0
22.08.2019 10:00:00 19,6 14,4 16,8 19,7 19,1 8 5 16 9 S 1023,2 30 60 0,0
22.08.2019 09:00:00 16,3 13,8 13,7 19,8 19,1 10 6 14 8 S 1023,6 41 60 0,0
22.08.2019 08:00:00 13,1 11,8 11,4 19,9 19,2 9 5 13 7 S 1023,7 25 21 0,0
22.08.2019 07:00:00 12,5 11,2 13,0 20,0 19,1 10 5 17 9 S 1023,3 29 0 0,0
22.08.2019 06:00:00 13,1 11,7 12,7 20,1 19,2 10 6 16 9 SSE 1022,9 34 0 0,0
22.08.2019 05:00:00 11,7 10,8 12,6 20,2 19,2 9 5 12 7 SSE 1023,0 39 0 0,0
22.08.2019 04:00:00 13,0 11,4 13,1 20,2 19,1 10 5 16 8 S 1022,7 38 0 0,0
22.08.2019 03:00:00 13,6 11,6 - - - 9 5 16 9 S 1023,0 40 - 0,0
22.08.2019 02:00:00 14,0 11,9 14,3 20,4 19,2 10 5 16 9 S 1023,2 40 0 0,0
22.08.2019 01:00:00 14,7 12,4 15,0 20,5 19,2 13 7 17 9 S 1023,4 38 0 0,0
22.08.2019 00:00:00 15,9 13,2 15,6 20,5 19,2 13 7 17 9 SSE 1023,5 37 0 0,0
21.08.2019 23:00:00 16,1 13,6 15,7 20,4 19,2 9 5 13 7 SSE 1023,2 37 0 0,0
21.08.2019 22:00:00 16,5 14,5 16,7 20,4 19,2 8 5 11 6 S 1022,8 38 0 0,0
21.08.2019 21:00:00 19,1 15,6 17,2 20,3 19,2 4 2 8 5 SW 1021,7 20 32 0,0
21.08.2019 20:00:00 20,6 14,9 20,0 20,2 19,2 6 4 20 11 N 1020,9 47 0 0,0
21.08.2019 19:00:00 23,1 11,5 22,9 20,0 19,2 6 4 16 9 ENE 1020,1 45 46 0,0
21.08.2019 18:00:00 24,2 13,1 24,6 19,8 19,2 8 4 19 10 E 1020,2 39 52 0,0
21.08.2019 17:00:00 23,6 14,0 25,2 19,6 19,2 11 6 22 12 N 1020,3 43 52 0,0
21.08.2019 16:00:00 23,8 13,9 30,6 19,5 19,2 9 5 21 11 NNW 1020,6 51 60 0,0
21.08.2019 15:00:00 23,3 13,2 31,0 19,3 19,2 10 5 21 11 NNE 1020,9 33 60 0,0
21.08.2019 14:00:00 22,9 11,9 27,6 19,3 19,2 7 4 20 11 ENE 1021,3 36 60 0,0
21.08.2019 13:00:00 21,2 13,1 24,1 19,3 19,2 12 7 30 16 ENE 1022,2 60 52 0,0
21.08.2019 12:00:00 19,5 14,3 19,7 19,3 19,2 9 5 16 9 NE 1022,6 43 32 0,0
21.08.2019 11:00:00 16,7 15,4 18,4 19,3 19,2 6 3 10 5 N 1023,4 39 18 0,0
21.08.2019 10:00:00 14,2 13,7 16,5 19,5 19,2 3 2 10 6 NNW 1023,7 38 5 0,0
21.08.2019 09:00:00 13,0 13,0 13,0 19,6 19,2 3 2 7 4 SW 1023,9 30 27 0,0
21.08.2019 08:00:00 11,4 11,4 10,0 19,7 19,2 5 3 8 4 SSE 1024,3 29 27 0,0
21.08.2019 07:00:00 9,7 9,6 9,5 19,8 19,3 4 2 8 4 S 1024,8 28 0 0,0
21.08.2019 06:00:00 11,0 10,8 9,9 19,9 19,2 2 1 9 5 SSE 1024,4 32 0 0,0
21.08.2019 05:00:00 10,9 10,7 11,1 20,0 19,3 6 3 9 5 SSE 1024,6 18 0 0,2
21.08.2019 04:00:00 10,9 10,6 11,3 20,0 19,2 6 3 9 5 S 1024,9 20 0 0,0
21.08.2019 03:00:00 11,4 10,8 11,2 20,1 19,3 7 4 8 4 S 1025,2 11 0 0,0
21.08.2019 02:00:00 13,0 12,8 12,2 20,2 19,3 3 2 8 4 S 1025,2 39 0 0,0
21.08.2019 01:00:00 13,1 12,8 13,1 20,2 19,3 6 3 8 4 SSW 1025,4 44 0 0,0
21.08.2019 00:00:00 13,5 13,2 13,0 20,2 19,2 4 2 8 5 S 1025,5 37 0 0,0
20.08.2019 23:00:00 14,5 13,9 13,2 20,2 19,3 4 2 7 4 SW 1025,4 51 0 0,0
20.08.2019 22:00:00 15,6 14,8 14,3 20,2 19,3 5 3 8 4 SW 1025,1 50 0 0,0
20.08.2019 21:00:00 17,8 14,5 16,1 20,1 19,3 2 1 5 3 E 1024,5 58 7 0,0
20.08.2019 20:00:00 19,1 14,1 19,3 20,0 19,3 4 2 14 8 ENE 1024,1 55 0 0,0
20.08.2019 19:00:00 19,4 14,9 19,8 19,9 19,3 8 5 17 9 NNE 1023,9 60 0 0,0
20.08.2019 18:00:00 19,9 14,7 21,4 19,8 19,3 8 4 17 9 N 1024,0 60 12 0,0
20.08.2019 17:00:00 21,9 15,3 25,5 19,6 19,2 6 3 13 7 NNE 1023,8 38 41 0,0
20.08.2019 16:00:00 19,8 14,2 24,5 19,6 19,2 5 3 15 8 N 1023,8 56 29 0,0
20.08.2019 15:00:00 20,2 13,6 22,6 19,6 19,3 6 3 13 7 S 1024,0 60 58 0,0
20.08.2019 14:00:00 16,8 14,6 17,0 19,6 19,2 4 2 18 10 ENE 1024,5 45 0 0,0
20.08.2019 13:00:00 15,5 14,2 16,9 19,7 19,3 14 7 23 12 N 1024,7 51 0 0,0
20.08.2019 12:00:00 15,4 14,3 16,0 19,8 19,3 14 8 29 16 NNW 1023,9 50 4 0,0
20.08.2019 11:00:00 13,8 13,5 14,7 19,9 19,3 2 1 26 14 SE 1023,9 27 0 3,6
20.08.2019 10:00:00 13,6 13,4 14,3 20,1 19,3 3 2 18 10 W 1024,3 2,3 0 6,1
20.08.2019 09:00:00 13,6 13,4 14,2 20,2 19,3 14 7 27 15 NNW 1023,5 3,3 0 3,8
20.08.2019 08:00:00 14,1 13,9 14,7 20,4 19,3 13 7 23 12 NNE 1021,8 4,8 0 2,6
20.08.2019 07:00:00 14,3 14,1 14,8 20,5 19,3 8 4 18 10 ENE 1021,3 4,5 0 5,3
20.08.2019 06:00:00 14,6 14,4 15,1 20,7 19,3 11 6 19 10 NNE 1021,0 4,3 0 4,0
20.08.2019 05:00:00 15,1 14,9 15,3 20,7 19,2 8 5 11 6 NNW 1021,0 3,5 0 5,3
20.08.2019 04:00:00 15,3 14,8 15,5 20,8 19,3 2 1 16 9 NE 1021,4 3,4 0 4,6
20.08.2019 03:00:00 15,8 14,5 16,9 20,8 19,3 7 4 15 8 SSE 1021,3 7 0 1,2
20.08.2019 02:00:00 16,2 15,2 17,5 20,9 19,3 6 3 9 5 SE 1021,0 25 0 0,0
20.08.2019 01:00:00 16,5 15,5 17,2 20,9 19,3 4 2 8 5 S 1021,2 20 0 0,2
20.08.2019 00:00:00 16,6 14,2 17,1 21,0 19,3 5 3 12 6 NE 1021,6 35 0 0,0
19.08.2019 23:00:00 17,1 14,6 17,1 21,0 19,3 9 5 15 8 NNW 1021,4 37 0 0,0
19.08.2019 22:00:00 17,4 14,1 17,8 21,0 19,3 3 1 10 6 N 1021,5 44 0 0,0
19.08.2019 21:00:00 18,4 14,5 18,6 21,0 19,3 6 3 14 8 ESE 1020,7 38 0 0,0
19.08.2019 20:00:00 18,8 13,4 19,8 21,0 19,3 8 4 14 7 ESE 1020,5 46 0 0,0
19.08.2019 19:00:00 19,1 12,8 20,8 21,0 19,3 7 4 18 10 ENE 1020,2 47 0 0,0
19.08.2019 18:00:00 19,6 13,3 21,0 20,9 19,2 11 6 18 10 ESE 1019,7 44 0 0,0
19.08.2019 17:00:00 19,4 12,6 21,8 20,9 19,3 7 4 16 9 ESE 1020,5 51 0 0,0
19.08.2019 16:00:00 19,2 12,9 21,2 20,8 19,2 9 5 18 10 ESE 1020,7 54 0 0,0
19.08.2019 15:00:00 19,6 12,4 23,2 20,7 19,3 8 5 18 10 E 1020,5 47 0 0,0
19.08.2019 14:00:00 19,8 11,8 24,4 20,7 19,2 11 6 22 12 NE 1020,3 41 17 0,0
19.08.2019 13:00:00 19,5 12,7 23,8 20,7 19,3 8 5 17 9 E 1020,4 39 20 0,0
19.08.2019 12:00:00 18,7 12,0 22,2 20,7 19,2 8 4 20 11 ENE 1020,6 20 25 0,0
19.08.2019 11:00:00 17,3 13,4 20,4 20,8 19,2 6 4 13 7 E 1020,8 43 0 0,0
19.08.2019 10:00:00 16,5 13,4 18,4 20,9 19,2 6 3 11 6 ESE 1020,4 44 0 0,0
19.08.2019 09:00:00 15,9 14,1 17,3 21,0 19,2 7 4 11 6 SE 1020,5 37 22 0,0
19.08.2019 08:00:00 15,0 13,7 16,4 21,0 19,2 6 3 14 8 SSE 1020,9 38 15 0,0
19.08.2019 07:00:00 15,0 14,2 16,5 21,1 19,2 5 3 9 5 S 1020,9 7 0 0,0
19.08.2019 06:00:00 14,9 13,9 16,3 21,3 19,2 6 3 14 8 S 1020,6 60 0 0,0
19.08.2019 05:00:00 14,9 13,9 16,3 21,3 19,2 10 5 19 10 SW 1020,6 60 0 0,0
19.08.2019 04:00:00 15,1 14,1 16,5 21,4 19,2 8 5 23 12 WSW 1020,4 60 0 0,0
19.08.2019 03:00:00 15,3 15,0 16,6 21,5 19,2 11 6 20 11 W 1020,5 5 0 0,6
19.08.2019 02:00:00 15,5 15,0 16,5 21,6 19,2 14 8 32 17 WSW 1020,6 8 0 2,0
19.08.2019 01:00:00 16,1 15,5 17,3 21,6 19,2 14 8 35 19 NW 1019,7 2,3 0 5,3
19.08.2019 00:00:00 17,7 17,2 18,6 21,7 19,2 10 5 18 10 WSW 1019,0 5 0 0,2
18.08.2019 23:00:00 17,9 17,3 18,8 21,7 19,2 6 4 23 12 WNW 1018,2 8 0 0,0
18.08.2019 22:00:00 18,2 16,9 19,0 21,7 19,2 15 8 29 15 W 1017,3 28 0 0,0
18.08.2019 21:00:00 18,8 18,0 19,6 21,7 19,2 19 10 29 16 WNW 1015,8 8 0 0,0
18.08.2019 20:00:00 20,0 19,2 20,8 21,7 19,2 12 7 38 21 W 1015,0 6 0 0,2
18.08.2019 19:00:00 22,0 18,8 22,1 21,6 19,2 17 9 27 15 W 1014,4 22 0 0,0
18.08.2019 18:00:00 22,9 18,7 24,3 21,6 19,2 13 7 20 11 W 1013,9 24 0 0,0
18.08.2019 17:00:00 23,0 18,7 25,3 21,5 19,2 10 5 22 12 SW 1013,4 26 0 0,0
18.08.2019 16:00:00 23,2 18,3 24,7 21,4 19,2 12 7 22 12 W 1013,4 22 0 0,0
18.08.2019 15:00:00 23,1 18,2 24,7 21,3 19,2 15 8 27 14 W 1013,8 17 0 0,0
18.08.2019 14:00:00 24,2 18,2 26,5 21,2 19,2 21 11 31 17 WNW 1013,4 27 15 0,0
18.08.2019 13:00:00 26,0 18,7 30,1 21,2 19,2 18 10 33 18 WNW 1012,5 35 60 0,0
18.08.2019 12:00:00 24,6 19,0 25,5 21,2 19,2 14 8 32 17 WNW 1012,1 20 60 0,0
18.08.2019 11:00:00 24,6 18,3 24,2 21,2 19,2 17 9 27 15 WNW 1011,4 28 60 0,0
18.08.2019 10:00:00 23,4 18,9 20,5 21,3 19,2 6 3 14 7 SSW 1010,6 27 60 0,0
18.08.2019 09:00:00 20,2 18,1 17,3 21,4 19,2 7 4 15 8 S 1010,2 29 60 0,0
18.08.2019 08:00:00 17,7 16,7 15,8 21,5 19,2 8 5 16 9 SSE 1009,8 23 24 0,0
18.08.2019 07:00:00 16,9 16,1 16,1 21,6 19,2 10 5 18 10 S 1009,9 21 0 0,0
18.08.2019 06:00:00 17,8 16,8 - - - 11 6 21 11 WSW 1009,5 27 - 0,0
18.08.2019 05:00:00 17,7 16,2 17,0 21,8 19,2 9 5 16 8 S 1009,7 30 0 0,0
18.08.2019 04:00:00 18,0 16,5 - - - 9 5 15 8 SSE 1010,2 28 - 0,0
18.08.2019 03:00:00 17,8 16,7 16,9 21,9 19,2 9 5 12 7 SSE 1011,0 26 0 0,0
18.08.2019 02:00:00 18,0 16,5 17,3 22,0 19,2 8 5 13 7 S 1011,6 27 0 0,0
18.08.2019 01:00:00 18,8 16,9 17,9 22,1 19,3 9 5 12 7 SSE 1012,0 30 0 0,0
18.08.2019 00:00:00 18,4 16,9 17,7 22,1 19,2 8 5 10 6 S 1012,6 28 0 0,0
17.08.2019 23:00:00 18,6 16,7 17,9 22,1 19,2 6 3 10 5 S 1012,9 34 0 0,0
17.08.2019 22:00:00 21,3 17,5 18,6 22,0 19,2 4 2 10 5 W 1012,6 35 0 0,0
17.08.2019 21:00:00 25,3 16,2 20,1 21,9 19,2 4 2 10 6 E 1011,9 45 37 0,0
17.08.2019 20:00:00 27,2 16,2 24,3 21,8 19,2 8 4 16 9 E 1012,1 41 60 0,0
17.08.2019 19:00:00 28,0 16,3 27,4 21,6 19,2 9 5 18 10 E 1012,5 35 60 0,0
17.08.2019 18:00:00 28,1 17,6 29,4 21,4 19,2 10 5 23 12 N 1013,0 50 60 0,0
17.08.2019 17:00:00 28,0 16,9 31,8 21,2 19,2 11 6 21 11 N 1013,2 30 60 0,0
17.08.2019 16:00:00 27,7 17,2 35,6 21,0 19,2 9 5 21 11 NNE 1013,6 43 60 0,0
17.08.2019 15:00:00 27,5 16,5 37,1 20,8 19,2 6 3 19 10 ENE 1014,0 30 60 0,0
17.08.2019 14:00:00 26,1 15,2 33,6 20,7 19,2 5 3 23 12 ENE 1014,7 36 60 0,0
17.08.2019 13:00:00 24,7 15,9 29,7 20,7 19,2 8 4 18 10 N 1015,7 43 60 0,0
17.08.2019 12:00:00 23,9 11,9 24,1 20,7 19,2 7 4 22 12 N 1016,0 43 60 0,0
17.08.2019 11:00:00 22,4 15,7 21,5 20,7 19,2 10 5 19 11 N 1015,8 36 60 0,0
17.08.2019 10:00:00 20,8 16,8 18,8 20,8 19,2 7 4 13 7 NNE 1015,5 31 60 0,0
17.08.2019 09:00:00 18,1 15,7 15,2 20,9 19,2 2 1 7 4 NNE 1016,0 25 58 0,0
17.08.2019 08:00:00 14,9 14,3 14,4 21,0 19,2 2 1 9 5 SW 1016,8 24 18 0,0
17.08.2019 07:00:00 14,7 14,1 14,3 21,1 19,2 9 5 11 6 S 1017,0 23 0 0,0
17.08.2019 06:00:00 14,5 13,7 14,4 21,3 19,2 6 3 14 7 S 1017,6 20 0 0,0
17.08.2019 05:00:00 15,5 14,4 14,3 21,3 19,2 6 3 9 5 SSE 1017,6 28 0 0,0
17.08.2019 04:00:00 16,3 13,8 14,8 21,4 19,2 6 4 16 9 SSW 1017,5 32 0 0,0
17.08.2019 03:00:00 16,4 13,5 15,5 21,5 19,2 12 6 16 9 SSW 1017,6 60 0 0,0
17.08.2019 02:00:00 17,1 15,3 16,8 21,6 19,3 11 6 20 11 SSW 1017,8 49 0 0,0
17.08.2019 01:00:00 18,7 15,9 16,9 21,6 19,3 8 4 25 14 W 1017,8 50 0 0,0
17.08.2019 00:00:00 18,2 16,4 17,3 21,7 19,3 5 3 14 8 S 1017,1 58 0 0,0
16.08.2019 23:00:00 17,9 16,1 17,4 21,6 19,3 8 4 11 6 S 1016,9 56 0 0,0
16.08.2019 22:00:00 18,8 16,6 18,3 21,6 19,3 9 5 11 6 S 1016,5 60 0 0,0
16.08.2019 21:00:00 22,6 16,8 19,2 21,5 19,3 5 3 9 5 WNW 1015,6 60 34 0,0
16.08.2019 20:00:00 26,4 15,4 23,7 21,3 19,2 6 3 16 9 E 1014,8 59 52 0,0

tt = temperature
td = dewpoint
tt 5cm = temperature 5cm
tt -20cm = temperature -20cm
tt -100cm = temperature -100cm
ff = wind speed
fx = gusts
dd = wind direction
ppp = reduced air pressure
vv = visibility
sd = sunshine duration
rr = precipitation

Next stations